Station Historical Data
Daily Summary for October 19, 2017 Units:  English    Metric   Both
« Previous Day
Next Day »
Daily Weekly Monthly Yearly Custom
  High: Low: Average:
Temperature: 65.8 °F 47.0 °F 58.8 °F
Dew Point: 55.9 °F 40.5 °F 47.8 °F
Humidity: 81% 57% 67%
Wind Speed: 19.0mph 0.0mph 5.7mph
Wind Gust: 28.0mph - -
Wind- - SW
Pressure: 30.12 in 30.00 in -
Precipitation: 0.00 in    
Historical Graphs
 
 
Tabular Data for October 19, 2017
Time Temperature Dew Point Pressure Wind Wind Speed Wind Gust Humidity Rainfall Rate (Hourly)
00:04 50.8 °F 42.8 °F 30.11 in Calm     74% 0.00 in
00:09 51.0 °F 42.6 °F 30.11 in Calm     73% 0.00 in
00:14 51.1 °F 42.4 °F 30.12 in Calm     72% 0.00 in
00:19 51.4 °F 42.3 °F 30.12 in Calm     71% 0.00 in
00:29 52.3 °F 42.4 °F 30.11 in SSW 1.0 mph 4.0 mph 69% 0.00 in
00:34 52.6 °F 42.3 °F 30.11 in SSW 3.0 mph 4.0 mph 68% 0.00 in
00:39 53.0 °F 42.3 °F 30.11 in SSW 2.0 mph 4.0 mph 67% 0.00 in
00:44 53.4 °F 42.7 °F 30.11 in SSW 3.0 mph 4.0 mph 67% 0.00 in
00:49 53.9 °F 42.8 °F 30.11 in SW 4.0 mph 5.0 mph 66% 0.00 in
00:54 54.7 °F 42.8 °F 30.11 in South 2.0 mph 7.0 mph 64% 0.00 in
00:59 54.8 °F 42.9 °F 30.11 in SSW 3.0 mph 7.0 mph 64% 0.00 in
01:04 55.2 °F 42.8 °F 30.11 in SSW 3.0 mph 7.0 mph 63% 0.00 in
01:09 55.5 °F 42.7 °F 30.11 in SW 2.0 mph 7.0 mph 62% 0.00 in
01:14 55.5 °F 42.7 °F 30.11 in SW 2.0 mph 5.0 mph 62% 0.00 in
01:19 55.5 °F 42.7 °F 30.11 in SSW 3.0 mph 9.0 mph 62% 0.00 in
01:24 55.4 °F 42.6 °F 30.11 in SSW 3.0 mph 7.0 mph 62% 0.00 in
01:29 55.4 °F 42.6 °F 30.11 in SSW 2.0 mph 7.0 mph 62% 0.00 in
01:34 55.6 °F 42.8 °F 30.11 in SSW 2.0 mph 6.0 mph 62% 0.00 in
01:39 55.6 °F 42.8 °F 30.12 in SSW 2.0 mph 6.0 mph 62% 0.00 in
01:44 55.7 °F 42.5 °F 30.12 in SW 2.0 mph 7.0 mph 61% 0.00 in
01:49 55.6 °F 42.8 °F 30.11 in South 2.0 mph 4.0 mph 62% 0.00 in
01:54 55.4 °F 42.6 °F 30.11 in SSW 1.0 mph 7.0 mph 62% 0.00 in
01:59 55.6 °F 43.2 °F 30.11 in SSW 3.0 mph 8.0 mph 63% 0.00 in
02:04 55.8 °F 43.0 °F 30.12 in SW 3.0 mph 8.0 mph 62% 0.00 in
02:09 56.0 °F 43.6 °F 30.12 in SW 3.0 mph 9.0 mph 63% 0.00 in
02:14 56.4 °F 43.5 °F 30.12 in SSW 3.0 mph 9.0 mph 62% 0.00 in
02:19 56.7 °F 43.8 °F 30.11 in South 6.0 mph 9.0 mph 62% 0.00 in
02:24 56.8 °F 43.5 °F 30.12 in SSW 7.0 mph 10.0 mph 61% 0.00 in
02:29 56.7 °F 43.4 °F 30.12 in SSW 4.0 mph 10.0 mph 61% 0.00 in
02:34 56.8 °F 43.5 °F 30.11 in SSW 4.0 mph 9.0 mph 61% 0.00 in
02:39 56.7 °F 43.4 °F 30.11 in SSW 4.0 mph 9.0 mph 61% 0.00 in
02:44 56.7 °F 43.4 °F 30.11 in SSW 4.0 mph 9.0 mph 61% 0.00 in
02:49 56.7 °F 43.4 °F 30.11 in South 2.0 mph 11.0 mph 61% 0.00 in
02:54 56.6 °F 43.3 °F 30.12 in SSW 3.0 mph 9.0 mph 61% 0.00 in
02:59 56.4 °F 43.5 °F 30.11 in SSW 4.0 mph 8.0 mph 62% 0.00 in
03:04 56.1 °F 43.3 °F 30.11 in SSW 3.0 mph 7.0 mph 62% 0.00 in
03:09 55.9 °F 43.1 °F 30.11 in SSW 4.0 mph 8.0 mph 62% 0.00 in
03:14 55.6 °F 42.8 °F 30.11 in SSW 4.0 mph 9.0 mph 62% 0.00 in
03:19 55.3 °F 42.5 °F 30.11 in SSW 3.0 mph 7.0 mph 62% 0.00 in
03:24 55.2 °F 42.4 °F 30.11 in SSW 5.0 mph 8.0 mph 62% 0.00 in
03:29 55.3 °F 42.5 °F 30.10 in SW 5.0 mph 9.0 mph 62% 0.00 in
03:34 55.3 °F 42.5 °F 30.10 in SSW 2.0 mph 8.0 mph 62% 0.00 in
03:39 55.2 °F 42.4 °F 30.10 in SSW 4.0 mph 8.0 mph 62% 0.00 in
03:44 55.1 °F 42.3 °F 30.09 in SSW 3.0 mph 8.0 mph 62% 0.00 in
03:49 55.2 °F 42.0 °F 30.09 in SSW 4.0 mph 9.0 mph 61% 0.00 in
03:54 55.6 °F 41.9 °F 30.09 in SSW 2.0 mph 11.0 mph 60% 0.00 in
03:59 55.8 °F 42.1 °F 30.09 in SSW 4.0 mph 11.0 mph 60% 0.00 in
04:04 55.7 °F 42.0 °F 30.09 in SSW 6.0 mph 8.0 mph 60% 0.00 in
04:09 55.6 °F 41.9 °F 30.09 in SSW 4.0 mph 11.0 mph 60% 0.00 in
04:14 55.9 °F 41.8 °F 30.09 in SSW 8.0 mph 9.0 mph 59% 0.00 in
04:19 56.1 °F 42.0 °F 30.09 in SSW 2.0 mph 9.0 mph 59% 0.00 in
04:24 56.1 °F 41.5 °F 30.09 in Calm   9.0 mph 58% 0.00 in
04:29 56.4 °F 41.8 °F 30.09 in SSW 5.0 mph 10.0 mph 58% 0.00 in
04:34 56.4 °F 41.8 °F 30.08 in South 5.0 mph 9.0 mph 58% 0.00 in
04:39 56.5 °F 41.9 °F 30.08 in SSW 5.0 mph 9.0 mph 58% 0.00 in
04:44 56.4 °F 41.8 °F 30.08 in SSW 4.0 mph 10.0 mph 58% 0.00 in
04:49 56.4 °F 41.8 °F 30.08 in SSW 4.0 mph 10.0 mph 58% 0.00 in
04:54 56.3 °F 41.7 °F 30.08 in SSW 4.0 mph 10.0 mph 58% 0.00 in
04:59 56.2 °F 41.6 °F 30.08 in SSW 4.0 mph 10.0 mph 58% 0.00 in
05:04 56.1 °F 41.5 °F 30.08 in South 5.0 mph 9.0 mph 58% 0.00 in
05:09 56.3 °F 42.1 °F 30.08 in SSW 5.0 mph 13.0 mph 59% 0.00 in
05:14 56.3 °F 41.7 °F 30.08 in SW 2.0 mph 8.0 mph 58% 0.00 in
05:19 56.1 °F 42.0 °F 30.08 in South 5.0 mph 9.0 mph 59% 0.00 in
05:24 56.0 °F 41.9 °F 30.08 in SSW 3.0 mph 8.0 mph 59% 0.00 in
05:29 55.8 °F 42.1 °F 30.08 in SSW 4.0 mph 7.0 mph 60% 0.00 in
05:34 55.6 °F 41.9 °F 30.08 in SSW 2.0 mph 8.0 mph 60% 0.00 in
05:39 55.5 °F 41.8 °F 30.08 in WSW 2.0 mph 9.0 mph 60% 0.00 in
05:44 55.4 °F 42.2 °F 30.08 in SSW 3.0 mph 9.0 mph 61% 0.00 in
05:49 55.4 °F 42.2 °F 30.08 in SSW 3.0 mph 7.0 mph 61% 0.00 in
05:54 55.2 °F 42.0 °F 30.08 in South 4.0 mph 7.0 mph 61% 0.00 in
05:59 55.1 °F 41.9 °F 30.08 in SSW 3.0 mph 7.0 mph 61% 0.00 in
06:04 54.9 °F 42.1 °F 30.08 in SSW 3.0 mph 6.0 mph 62% 0.00 in
06:09 54.9 °F 42.1 °F 30.08 in SSW 4.0 mph 9.0 mph 62% 0.00 in
06:14 55.0 °F 42.2 °F 30.08 in SSW 3.0 mph 11.0 mph 62% 0.00 in
06:19 54.9 °F 42.1 °F 30.07 in WSW 3.0 mph 7.0 mph 62% 0.00 in
06:24 54.8 °F 42.0 °F 30.07 in SSW 4.0 mph 7.0 mph 62% 0.00 in
06:29 54.8 °F 42.4 °F 30.06 in SSW 3.0 mph 7.0 mph 63% 0.00 in
06:34 54.8 °F 42.4 °F 30.06 in South 5.0 mph 9.0 mph 63% 0.00 in
06:39 54.8 °F 42.4 °F 30.06 in SSW 2.0 mph 9.0 mph 63% 0.00 in
06:44 54.7 °F 42.3 °F 30.06 in SSW 4.0 mph 9.0 mph 63% 0.00 in
06:49 54.7 °F 42.3 °F 30.06 in SSW 3.0 mph 7.0 mph 63% 0.00 in
06:54 54.6 °F 42.3 °F 30.06 in SSW 3.0 mph 8.0 mph 63% 0.00 in
06:59 54.6 °F 42.7 °F 30.06 in SW 7.0 mph 7.0 mph 64% 0.00 in
07:04 54.7 °F 42.8 °F 30.07 in SW 4.0 mph 8.0 mph 64% 0.00 in
07:09 54.6 °F 42.7 °F 30.07 in SW 1.0 mph 7.0 mph 64% 0.00 in
07:14 54.6 °F 42.7 °F 30.07 in SW 3.0 mph 9.0 mph 64% 0.00 in
07:19 54.9 °F 42.9 °F 30.07 in WSW 7.0 mph 8.0 mph 64% 0.00 in
07:24 55.0 °F 43.0 °F 30.08 in SW 4.0 mph 9.0 mph 64% 0.00 in
07:29 55.0 °F 43.0 °F 30.08 in SW 4.0 mph 9.0 mph 64% 0.00 in
07:34 55.0 °F 43.0 °F 30.07 in SW 3.0 mph 11.0 mph 64% 0.00 in
07:39 55.2 °F 43.2 °F 30.07 in South 4.0 mph 9.0 mph 64% 0.00 in
07:44 55.1 °F 43.1 °F 30.07 in SSW 4.0 mph 7.0 mph 64% 0.00 in
07:49 54.9 °F 43.4 °F 30.07 in SSW 4.0 mph 10.0 mph 65% 0.00 in
07:54 55.0 °F 43.4 °F 30.08 in SW 3.0 mph 9.0 mph 65% 0.00 in
07:59 55.0 °F 43.4 °F 30.08 in SSW 7.0 mph 7.0 mph 65% 0.00 in
08:04 55.2 °F 43.6 °F 30.07 in SSW 3.0 mph 7.0 mph 65% 0.00 in
08:09 55.4 °F 43.8 °F 30.07 in Calm   7.0 mph 65% 0.00 in
08:14 55.6 °F 44.0 °F 30.06 in SSW 4.0 mph 8.0 mph 65% 0.00 in
08:19 56.0 °F 44.4 °F 30.06 in SSW 4.0 mph 9.0 mph 65% 0.00 in
08:24 56.1 °F 44.5 °F 30.06 in South 5.0 mph 10.0 mph 65% 0.00 in
08:29 56.5 °F 44.5 °F 30.06 in SW 3.0 mph 10.0 mph 64% 0.00 in
08:34 56.8 °F 44.7 °F 30.06 in SSW 8.0 mph 14.0 mph 64% 0.00 in
08:39 57.1 °F 45.0 °F 30.07 in SW 5.0 mph 14.0 mph 64% 0.00 in
08:44 57.3 °F 44.8 °F 30.07 in SW 5.0 mph 12.0 mph 63% 0.00 in
08:49 57.5 °F 45.0 °F 30.07 in South 4.0 mph 13.0 mph 63% 0.00 in
08:54 57.8 °F 45.3 °F 30.08 in SW 5.0 mph 14.0 mph 63% 0.00 in
08:59 58.1 °F 45.6 °F 30.07 in SW 5.0 mph 14.0 mph 63% 0.00 in
09:04 57.9 °F 45.4 °F 30.07 in South 4.0 mph 11.0 mph 63% 0.00 in
09:09 57.6 °F 45.5 °F 30.06 in SW 12.0 mph 19.0 mph 64% 0.00 in
09:14 57.7 °F 45.2 °F 30.07 in SW 6.0 mph 19.0 mph 63% 0.00 in
09:19 57.9 °F 45.8 °F 30.07 in SSW 5.0 mph 9.0 mph 64% 0.00 in
09:24 58.7 °F 46.5 °F 30.07 in SW 11.0 mph 14.0 mph 64% 0.00 in
09:29 58.9 °F 45.9 °F 30.07 in SW 7.0 mph 15.0 mph 62% 0.00 in
09:34 59.3 °F 46.3 °F 30.06 in SW 11.0 mph 15.0 mph 62% 0.00 in
09:39 59.9 °F 46.8 °F 30.06 in SW 7.0 mph 15.0 mph 62% 0.00 in
09:44 60.6 °F 46.6 °F 30.07 in SW 6.0 mph 15.0 mph 60% 0.00 in
09:49 61.0 °F 47.0 °F 30.06 in West 5.0 mph 14.0 mph 60% 0.00 in
09:54 61.4 °F 47.4 °F 30.06 in SW 7.0 mph 14.0 mph 60% 0.00 in
09:59 61.4 °F 47.4 °F 30.06 in WSW 5.0 mph 14.0 mph 60% 0.00 in
10:04 61.1 °F 46.7 °F 30.07 in WSW 7.0 mph 20.0 mph 59% 0.00 in
10:09 60.7 °F 47.2 °F 30.07 in SW 8.0 mph 20.0 mph 61% 0.00 in
10:14 60.7 °F 47.2 °F 30.07 in SW 7.0 mph 17.0 mph 61% 0.00 in
10:19 60.7 °F 47.2 °F 30.06 in SW 11.0 mph 16.0 mph 61% 0.00 in
10:24 60.8 °F 47.7 °F 30.06 in WSW 2.0 mph 13.0 mph 62% 0.00 in
10:29 61.1 °F 48.0 °F 30.06 in SW 7.0 mph 13.0 mph 62% 0.00 in
10:34 61.9 °F 49.2 °F 30.06 in West 4.0 mph 12.0 mph 63% 0.00 in
10:39 61.9 °F 48.7 °F 30.06 in SW 7.0 mph 13.0 mph 62% 0.00 in
10:44 62.4 °F 49.2 °F 30.05 in SW 4.0 mph 19.0 mph 62% 0.00 in
10:49 62.9 °F 48.8 °F 30.05 in WSW 7.0 mph 15.0 mph 60% 0.00 in
10:54 62.5 °F 48.9 °F 30.05 in SW 8.0 mph 17.0 mph 61% 0.00 in
10:59 63.1 °F 49.0 °F 30.06 in SW 8.0 mph 19.0 mph 60% 0.00 in
11:04 63.4 °F 48.8 °F 30.05 in SW 9.0 mph 19.0 mph 59% 0.00 in
11:09 63.7 °F 49.5 °F 30.04 in SW 10.0 mph 21.0 mph 60% 0.00 in
11:14 64.0 °F 49.8 °F 30.04 in WSW 8.0 mph 21.0 mph 60% 0.00 in
11:19 63.8 °F 49.6 °F 30.04 in WSW 13.0 mph 21.0 mph 60% 0.00 in
11:24 64.5 °F 50.3 °F 30.04 in SW 10.0 mph 21.0 mph 60% 0.00 in
11:29 65.1 °F 50.4 °F 30.04 in SW 9.0 mph 17.0 mph 59% 0.00 in
11:34 65.1 °F 49.5 °F 30.05 in SW 10.0 mph 23.0 mph 57% 0.00 in
11:39 65.2 °F 50.0 °F 30.05 in WSW 10.0 mph 21.0 mph 58% 0.00 in
11:44 65.3 °F 50.1 °F 30.05 in WSW 12.0 mph 19.0 mph 58% 0.00 in
11:49 65.4 °F 50.2 °F 30.06 in WSW 19.0 mph 22.0 mph 58% 0.00 in
11:54 65.2 °F 51.0 °F 30.05 in WSW 10.0 mph 21.0 mph 60% 0.00 in
11:59 65.3 °F 51.1 °F 30.05 in WSW 11.0 mph 21.0 mph 60% 0.00 in
12:04 65.6 °F 51.3 °F 30.05 in WSW 10.0 mph 20.0 mph 60% 0.00 in
12:09 65.3 °F 51.5 °F 30.06 in WSW 10.0 mph 21.0 mph 61% 0.00 in
12:14 65.3 °F 51.1 °F 30.05 in SSW 17.0 mph 24.0 mph 60% 0.00 in
12:19 64.9 °F 51.6 °F 30.05 in WNW 9.0 mph 26.0 mph 62% 0.00 in
12:24 64.8 °F 51.5 °F 30.05 in West 10.0 mph 25.0 mph 62% 0.00 in
12:29 64.5 °F 51.6 °F 30.05 in WSW 12.0 mph 25.0 mph 63% 0.00 in
12:34 65.0 °F 52.5 °F 30.04 in WSW 11.0 mph 24.0 mph 64% 0.00 in
12:39 65.0 °F 51.7 °F 30.05 in WSW 11.0 mph 24.0 mph 62% 0.00 in
12:44 64.9 °F 52.4 °F 30.05 in SSW 4.0 mph 21.0 mph 64% 0.00 in
12:49 65.1 °F 52.6 °F 30.05 in SW 11.0 mph 24.0 mph 64% 0.00 in
12:54 64.8 °F 52.3 °F 30.04 in South 11.0 mph 18.0 mph 64% 0.00 in
12:59 65.1 °F 53.0 °F 30.04 in SW 12.0 mph 22.0 mph 65% 0.00 in
13:04 65.1 °F 52.6 °F 30.04 in WSW 11.0 mph 22.0 mph 64% 0.00 in
13:09 65.1 °F 53.5 °F 30.04 in WSW 10.0 mph 21.0 mph 66% 0.00 in
13:14 64.8 °F 52.3 °F 30.04 in WSW 11.0 mph 28.0 mph 64% 0.00 in
13:19 64.5 °F 52.9 °F 30.04 in SW 12.0 mph 28.0 mph 66% 0.00 in
13:24 64.5 °F 53.3 °F 30.04 in WSW 13.0 mph 26.0 mph 67% 0.00 in
13:29 64.7 °F 53.1 °F 30.03 in WSW 12.0 mph 25.0 mph 66% 0.00 in
13:34 65.1 °F 54.3 °F 30.03 in SSW 12.0 mph 19.0 mph 68% 0.00 in
13:39 65.4 °F 53.7 °F 30.03 in WSW 14.0 mph 21.0 mph 66% 0.00 in
13:44 65.0 °F 54.2 °F 30.03 in NW 8.0 mph 24.0 mph 68% 0.00 in
13:49 65.2 °F 53.6 °F 30.03 in WSW 15.0 mph 20.0 mph 66% 0.00 in
13:54 64.5 °F 53.3 °F 30.03 in West 7.0 mph 25.0 mph 67% 0.00 in
13:59 64.8 °F 54.0 °F 30.02 in WSW 19.0 mph 21.0 mph 68% 0.00 in
14:04 64.5 °F 53.3 °F 30.02 in West 9.0 mph 27.0 mph 67% 0.00 in
14:09 64.5 °F 53.7 °F 30.02 in SW 13.0 mph 27.0 mph 68% 0.00 in
14:14 64.9 °F 54.1 °F 30.02 in WSW 12.0 mph 22.0 mph 68% 0.00 in
14:19 65.0 °F 53.8 °F 30.01 in WSW 12.0 mph 23.0 mph 67% 0.00 in
14:24 64.8 °F 54.0 °F 30.01 in WSW 13.0 mph 23.0 mph 68% 0.00 in
14:29 64.8 °F 54.0 °F 30.01 in WSW 12.0 mph 23.0 mph 68% 0.00 in
14:34 65.3 °F 54.9 °F 30.01 in WSW 11.0 mph 20.0 mph 69% 0.00 in
14:39 65.2 °F 54.0 °F 30.01 in WSW 10.0 mph 23.0 mph 67% 0.00 in
14:44 65.4 °F 54.2 °F 30.01 in WSW 9.0 mph 24.0 mph 67% 0.00 in
14:49 65.6 °F 54.8 °F 30.01 in West 7.0 mph 23.0 mph 68% 0.00 in
14:54 65.7 °F 55.2 °F 30.01 in West 8.0 mph 23.0 mph 69% 0.00 in
14:59 65.8 °F 54.9 °F 30.00 in SSW 11.0 mph 19.0 mph 68% 0.00 in
15:04 65.7 °F 55.2 °F 30.00 in West 6.0 mph 18.0 mph 69% 0.00 in
15:09 65.7 °F 54.4 °F 30.00 in SSW 5.0 mph 17.0 mph 67% 0.00 in
15:14 65.6 °F 54.3 °F 30.00 in WSW 9.0 mph 22.0 mph 67% 0.00 in
15:19 65.8 °F 54.5 °F 30.00 in WSW 9.0 mph 24.0 mph 67% 0.00 in
15:24 65.7 °F 54.8 °F 30.00 in WSW 10.0 mph 24.0 mph 68% 0.00 in
15:29 65.8 °F 54.9 °F 30.00 in WSW 10.0 mph 23.0 mph 68% 0.00 in
15:34 65.7 °F 54.8 °F 30.00 in WSW 10.0 mph 22.0 mph 68% 0.00 in
15:39 65.5 °F 55.1 °F 30.00 in West 9.0 mph 22.0 mph 69% 0.00 in
15:44 65.4 °F 55.4 °F 30.01 in West 19.0 mph 21.0 mph 70% 0.00 in
15:49 64.9 °F 55.3 °F 30.01 in WNW 7.0 mph 20.0 mph 71% 0.00 in
15:54 64.7 °F 55.1 °F 30.01 in WSW 7.0 mph 24.0 mph 71% 0.00 in
15:59 64.9 °F 55.7 °F 30.00 in WSW 11.0 mph 18.0 mph 72% 0.00 in
16:04 64.9 °F 55.7 °F 30.01 in WSW 8.0 mph 22.0 mph 72% 0.00 in
16:09 64.8 °F 55.9 °F 30.01 in West 9.0 mph 17.0 mph 73% 0.00 in
16:14 64.7 °F 55.8 °F 30.01 in WNW 8.0 mph 19.0 mph 73% 0.00 in
16:19 64.4 °F 55.6 °F 30.01 in WSW 10.0 mph 19.0 mph 73% 0.00 in
16:24 64.4 °F 55.6 °F 30.01 in WSW 10.0 mph 22.0 mph 73% 0.00 in
16:29 64.2 °F 55.4 °F 30.01 in WSW 11.0 mph 22.0 mph 73% 0.00 in
16:34 64.2 °F 55.4 °F 30.01 in WSW 10.0 mph 21.0 mph 73% 0.00 in
16:39 64.1 °F 55.3 °F 30.01 in WSW 11.0 mph 23.0 mph 73% 0.00 in
16:44 64.1 °F 55.3 °F 30.01 in WNW 9.0 mph 20.0 mph 73% 0.00 in
16:49 64.1 °F 55.3 °F 30.01 in WSW 10.0 mph 21.0 mph 73% 0.00 in
16:54 64.2 °F 55.0 °F 30.02 in West 8.0 mph 19.0 mph 72% 0.00 in
16:59 64.1 °F 54.9 °F 30.02 in WSW 19.0 mph 20.0 mph 72% 0.00 in
17:04 64.1 °F 54.5 °F 30.02 in NW 12.0 mph 21.0 mph 71% 0.00 in
17:09 64.0 °F 54.4 °F 30.02 in West 9.0 mph 20.0 mph 71% 0.00 in
17:14 64.0 °F 54.0 °F 30.02 in WSW 9.0 mph 21.0 mph 70% 0.00 in
17:19 63.9 °F 53.9 °F 30.02 in West 8.0 mph 18.0 mph 70% 0.00 in
17:24 63.5 °F 53.9 °F 30.02 in WSW 10.0 mph 19.0 mph 71% 0.00 in
17:29 63.3 °F 54.1 °F 30.02 in WSW 10.0 mph 21.0 mph 72% 0.00 in
17:34 63.1 °F 53.9 °F 30.02 in WSW 10.0 mph 21.0 mph 72% 0.00 in
17:39 63.0 °F 53.4 °F 30.02 in West 9.0 mph 19.0 mph 71% 0.00 in
17:44 62.9 °F 53.7 °F 30.03 in West 9.0 mph 19.0 mph 72% 0.00 in
17:49 62.6 °F 53.4 °F 30.03 in West 8.0 mph 19.0 mph 72% 0.00 in
17:54 62.5 °F 53.7 °F 30.03 in WSW 8.0 mph 16.0 mph 73% 0.00 in
17:59 62.3 °F 53.9 °F 30.03 in SW 7.0 mph 19.0 mph 74% 0.00 in
18:04 62.1 °F 54.1 °F 30.03 in WNW 6.0 mph 13.0 mph 75% 0.00 in
18:09 62.1 °F 54.1 °F 30.04 in WSW 10.0 mph 17.0 mph 75% 0.00 in
18:14 61.9 °F 54.2 °F 30.04 in WSW 7.0 mph 14.0 mph 76% 0.00 in
18:19 61.8 °F 54.2 °F 30.04 in SW 9.0 mph 12.0 mph 76% 0.00 in
18:24 61.6 °F 54.0 °F 30.04 in WSW 3.0 mph 13.0 mph 76% 0.00 in
18:29 61.4 °F 54.1 °F 30.04 in WSW 6.0 mph 15.0 mph 77% 0.00 in
18:34 61.4 °F 54.1 °F 30.04 in WSW 6.0 mph 15.0 mph 77% 0.00 in
18:39 61.4 °F 54.1 °F 30.05 in WSW 6.0 mph 14.0 mph 77% 0.00 in
18:44 61.4 °F 54.1 °F 30.05 in WSW 7.0 mph 14.0 mph 77% 0.00 in
18:49 61.4 °F 54.1 °F 30.05 in WSW 7.0 mph 14.0 mph 77% 0.00 in
18:54 61.4 °F 54.1 °F 30.05 in WSW 6.0 mph 13.0 mph 77% 0.00 in
18:59 61.3 °F 54.0 °F 30.05 in WSW 5.0 mph 13.0 mph 77% 0.00 in
19:04 61.2 °F 54.3 °F 30.05 in SW 4.0 mph 11.0 mph 78% 0.00 in
19:09 61.1 °F 54.2 °F 30.06 in West 9.0 mph 9.0 mph 78% 0.00 in
19:14 61.1 °F 54.2 °F 30.06 in WSW 4.0 mph 12.0 mph 78% 0.00 in
19:19 61.0 °F 54.1 °F 30.06 in WSW 7.0 mph 12.0 mph 78% 0.00 in
19:24 61.0 °F 54.1 °F 30.06 in West 4.0 mph 9.0 mph 78% 0.00 in
19:29 60.8 °F 53.9 °F 30.06 in West 3.0 mph 12.0 mph 78% 0.00 in
19:34 60.8 °F 54.2 °F 30.06 in West 4.0 mph 11.0 mph 79% 0.00 in
19:39 60.7 °F 53.8 °F 30.07 in West 5.0 mph 11.0 mph 78% 0.00 in
19:44 60.6 °F 54.0 °F 30.07 in West 5.0 mph 10.0 mph 79% 0.00 in
19:49 60.6 °F 54.0 °F 30.07 in West 5.0 mph 9.0 mph 79% 0.00 in
19:54 60.5 °F 54.0 °F 30.08 in West 5.0 mph 9.0 mph 79% 0.00 in
19:59 60.4 °F 54.2 °F 30.08 in West 5.0 mph 10.0 mph 80% 0.00 in
20:04 60.2 °F 54.0 °F 30.08 in West 5.0 mph 10.0 mph 80% 0.00 in
20:09 60.1 °F 53.9 °F 30.08 in West 5.0 mph 10.0 mph 80% 0.00 in
20:14 59.9 °F 53.7 °F 30.09 in West 8.0 mph 9.0 mph 80% 0.00 in
20:19 59.6 °F 53.8 °F 30.09 in West 2.0 mph 9.0 mph 81% 0.00 in
20:24 59.4 °F 53.6 °F 30.09 in West 4.0 mph 9.0 mph 81% 0.00 in
20:29 59.1 °F 53.3 °F 30.09 in West 6.0 mph 8.0 mph 81% 0.00 in
20:34 58.8 °F 52.6 °F 30.09 in West 4.0 mph 9.0 mph 80% 0.00 in
20:39 58.7 °F 52.2 °F 30.09 in WNW 2.0 mph 9.0 mph 79% 0.00 in
20:44 58.5 °F 51.7 °F 30.09 in WNW 4.0 mph 9.0 mph 78% 0.00 in
20:49 58.2 °F 51.0 °F 30.10 in WNW 3.0 mph 7.0 mph 77% 0.00 in
20:54 58.0 °F 50.1 °F 30.10 in West 3.0 mph 6.0 mph 75% 0.00 in
20:59 57.9 °F 49.3 °F 30.10 in West 3.0 mph 6.0 mph 73% 0.00 in
21:04 57.8 °F 48.5 °F 30.10 in West 6.0 mph 6.0 mph 71% 0.00 in
21:09 57.8 °F 48.1 °F 30.11 in West 3.0 mph 8.0 mph 70% 0.00 in
21:14 57.8 °F 47.7 °F 30.11 in West 3.0 mph 8.0 mph 69% 0.00 in
21:19 57.6 °F 46.7 °F 30.11 in West 1.0 mph 6.0 mph 67% 0.00 in
21:24 57.6 °F 46.3 °F 30.11 in WNW 3.0 mph 4.0 mph 66% 0.00 in
21:29 57.6 °F 45.9 °F 30.11 in West 2.0 mph 7.0 mph 65% 0.00 in
21:34 57.5 °F 45.8 °F 30.11 in WNW 3.0 mph 6.0 mph 65% 0.00 in
21:39 57.1 °F 45.4 °F 30.11 in West 2.0 mph 4.0 mph 65% 0.00 in
21:44 56.9 °F 45.7 °F 30.11 in West 1.0 mph 4.0 mph 66% 0.00 in
21:49 56.6 °F 45.8 °F 30.11 in West 1.0 mph 4.0 mph 67% 0.00 in
21:54 56.3 °F 45.5 °F 30.11 in West 1.0 mph 4.0 mph 67% 0.00 in
21:59 55.9 °F 45.5 °F 30.11 in Calm   4.0 mph 68% 0.00 in
22:04 55.7 °F 45.3 °F 30.11 in Calm   2.0 mph 68% 0.00 in
22:09 55.0 °F 45.0 °F 30.11 in Calm   2.0 mph 69% 0.00 in
22:14 54.1 °F 44.9 °F 30.11 in Calm     71% 0.00 in
22:19 53.3 °F 44.5 °F 30.11 in Calm     72% 0.00 in
22:24 52.5 °F 44.4 °F 30.11 in Calm     74% 0.00 in
22:29 52.1 °F 44.4 °F 30.11 in Calm     75% 0.00 in
22:34 51.6 °F 44.3 °F 30.11 in Calm     76% 0.00 in
22:39 51.5 °F 44.2 °F 30.11 in Calm     76% 0.00 in
22:44 51.0 °F 44.0 °F 30.11 in Calm     77% 0.00 in
22:49 50.6 °F 43.7 °F 30.11 in Calm     77% 0.00 in
22:54 50.1 °F 43.5 °F 30.11 in Calm     78% 0.00 in
22:59 49.9 °F 43.3 °F 30.11 in Calm     78% 0.00 in
23:04 49.7 °F 43.1 °F 30.11 in Calm     78% 0.00 in
23:09 49.3 °F 43.1 °F 30.12 in Calm     79% 0.00 in
23:14 49.1 °F 42.5 °F 30.12 in Calm     78% 0.00 in
23:19 48.7 °F 42.5 °F 30.11 in Calm     79% 0.00 in
23:24 48.5 °F 42.3 °F 30.11 in Calm     79% 0.00 in
23:29 48.3 °F 42.1 °F 30.11 in Calm     79% 0.00 in
23:34 48.1 °F 41.9 °F 30.11 in Calm     79% 0.00 in
23:39 47.9 °F 41.4 °F 30.11 in Calm     78% 0.00 in
23:44 48.0 °F 41.5 °F 30.12 in Calm     78% 0.00 in
23:49 47.8 °F 40.9 °F 30.12 in Calm     77% 0.00 in
23:54 47.4 °F 40.9 °F 30.12 in Calm     78% 0.00 in
23:59 47.0 °F 40.5 °F 30.12 in Calm     78% 0.00 in
Buffalo, New York, USA
Compliments of Weather Underground - 2.5 mb